Flag for U.S.A. Weather past 2 weeks in Birmingham, Alabama, U.S.A.

71 °F


Feels Like: 75 °F
Forecast: 67 / 82 °F
Wind: No wind

Location: Birmingham International Airport

Current Time: Oct 9, 2015 at 5:40:36 AM

Latest Report: Oct 9, 2015 at 4:53 AM

Visibility: 10 mi

Pressure: 30.08 "Hg

Humidity: 68%

Dew point: 60 °F

Location of BirminghamLocation

Historic Weather in Birmingham — Graph


Birmingham temperature yesterday

Maximum temperature yesterday: 85 °F (at 2:53 PM)
Minimum temperature yesterday: 66 °F (at 2:53 AM)
Average temperature yesterday: 75 °F

Past Weeks' High & Low Weather Summary

High87 °F (Oct 7, 2:53 PM)100% (Sep 30, 3:53 AM)30.14 "Hg (Sep 30, 3:53 AM)
Low53 °F (Oct 3, 8:53 PM)37% (Sep 24, 2:53 PM)29.75 "Hg (Oct 3, 2:53 PM)
Average70 °F80%29.95 "Hg
* Reported Sep 24 3:53 AM — Oct 9 3:53 AM, Birmingham, Weather by CustomWeather, © 2015

Note: Actual official high and low records may vary slightly from our data, if they occured in-between our weather recording intervals... More about our weather records


Birmingham weather history for previous 24 hours

Time TempWeatherWind HumidityBarometerVisibility
3:53 AM
Fri, Oct 9
69 °FOvercast.3 mph79%30.07 "Hg10 mi
2:53 AM68 °FMostly cloudy.No wind84%30.08 "Hg10 mi
1:53 AM68 °FClear.No wind84%30.08 "Hg10 mi
12:53 AM70 °FClear.No wind79%30.08 "Hg10 mi
11:53 PM
Thu, Oct 8
69 °FClear.No wind84%30.09 "Hg10 mi
10:53 PM71 °FPassing clouds.No wind76%30.09 "Hg10 mi
9:53 PM76 °FPassing clouds.No wind60%30.09 "Hg10 mi
8:53 PM74 °FPassing clouds.No wind69%30.08 "Hg10 mi
7:53 PM74 °FPassing clouds.No wind69%30.08 "Hg10 mi
6:53 PM79 °FPartly sunny.No wind54%30.06 "Hg10 mi
5:53 PM81 °FPartly sunny.3 mph51%30.05 "Hg10 mi
4:53 PM84 °FScattered clouds.8 mph45%30.03 "Hg10 mi
3:53 PM85 °FPartly sunny.7 mph45%30.05 "Hg10 mi
2:53 PM85 °FScattered clouds.5 mph45%30.06 "Hg10 mi
1:53 PM84 °FScattered clouds.7 mph45%30.07 "Hg10 mi
12:53 PM83 °FPassing clouds.8 mph46%30.10 "Hg10 mi
11:53 AM81 °FBroken clouds.7 mph47%30.12 "Hg10 mi
10:53 AM80 °FScattered clouds.3 mph51%30.13 "Hg10 mi
9:53 AM77 °FScattered clouds.8 mph54%30.14 "Hg10 mi
8:53 AM74 °FScattered clouds.3 mph60%30.14 "Hg10 mi
7:53 AM70 °FPartly sunny.3 mph71%30.12 "Hg10 mi
6:53 AM69 °FPassing clouds.No wind70%30.11 "Hg10 mi
5:53 AM69 °FPassing clouds.No wind73%30.09 "Hg10 mi
Weather by CustomWeather, © 2015

See weather overviewHow to use our weather pages